{"data":{"norad_id":65517,"epoch":"2026-09-20T21:46:02.752320Z","epoch_age_seconds":76813,"freshness":"FRESH","line1":"1 65517U 25198AB  26263.90697630  .00020559  00000+0  61769-3 0  9990","line2":"2 65517  53.1583  79.6240 0000723  96.0611 264.0474 15.34413271 58577","mean_motion":15.34413271,"eccentricity":7.23e-5,"inclination_deg":53.1583,"raan_deg":79.624,"arg_perigee_deg":96.0611,"mean_anomaly_deg":264.0474,"bstar":0.00061769,"rev_number":5857,"period_min":93.846946400661,"perigee_km":462.16920638509,"apogee_km":463.15838618023,"semimajor_km":6840.8007962827,"source":"CELESTRAK","updated_at":"2026-09-21T09:00:35.646612Z"}}